SCP
-0 -0 -0 0 0 0 0 0 0 0 0 0 0 0 0 0 0 0 0 0 0 0 0 0 0 0 0 0 0 -0 0 0 0 0 0 0 0 0 0 0 0 0 0
-0 -0 -0 0 0 0 0 0 0 0 0 0 0 0 0 0 0 0 0 0 0 0 0 0 0 0 0 0 0 0 0 0 0 0 0 0 0 0 0 0 0 0 0
-0 -0 -0 -0 0 0 0 0 0 0 0 0 0 0 0 0 0 0 0 0 0 0 0 0 0 0 0 0 0 0 0 0 0 0 0 0 0 0 0 0 0 0 0
-0 -0 -0 0 0 0 0 0 0 0 0 0 0 0 0 0 0 0 0 0 0 0 0 0 0 0 0 0 0 0 0 0 0 0 0 0 0 0 0 0 0 0 0
-0 -0 0 0 0 0 0 0 0 0 0 0 0 0 0 0 0 0 0 0 0 0 0 0 0 0 0 0 0 0 0 0 0 0 0 0 0 0 0 0 0 0 0
0 0 0 -0 0 0 0 0 0 0 0 0 0 0 0 0 0 0 0 0 0 0 0 0 0 0 0 0 0 0 0 0 0 0 0 0 0 0 0 0 0 0 0
0 0 0 0 0 0 0 0 0 0 0 0 0 0 0 0 0 0 0 0 0 0 0 0 0 0 0 0 0 0 0 0 0 0 0 0 0 0 0 0 0 0 0
0 0 0 -0 0 0 -0 0 0 0 0 0 0 0 0 0 0 0 0 0 0 0 0 0 0 0 0 0 0 0 0 0 0 0 0 0 0 0 0 0 0 0 0
0 0 0 -0 -0 -0 0 0 -0 -0 0 0 0 0 0 0 0 0 0 0 0 0 0 0 0 0 -0 -0 0 0 0 0 0 0 0 0 0 0 0 0 0 0 0
0 0 -0 -0 -0 0 -0 -0 -0 -0 -0 0 0 0 0 0 0 0 0 0 0 0 0 0 0 0 -0 -0 0 -0 0 0 0 0 0 0 0 0 0 0 0 0 0
0 0 0 0 -0 -0 -0 -0 -0 -0 -0 -0 0 0 0 0 0 0 0 0 0 0 0 0 0 -0 -0 -0 -0 0 -0 -0 0 0 0 0 0 0 0 0 0 0 0
0 0 0 0 -0 -0 -0 -0 -0 -0 -0 -0 -0 0 0 0 0 0 0 0 0 0 0 0 0 -0 -0 0 0 -0 -0 -0 0 0 0 0 0 0 0 0 0 0 0
0 0 0 0 0 -0 -0 -0 -0 -0 -0 -0 -0 0 0 0 0 0 0 0 0 0 0 0 0 0 0 0 -0 -0 0 0 -0 -0 -0 0 0 0 0 0 0 0 0
0 0 0 0 0 0 -0 -0 -0 -0 -0 -0 -0 -0 0 0 0 0 0 0 0 0 0 0 0 0 0 0 0 0 0 0 0 0 0 0 0 0 0 0 0 0 0
0 0 0 0 0 0 0 0 -0 -0 -0 -0 0 0 0 0 0 0 0 0 0 0 0 0 0 0 0 0 0 0 0 0 0 0 0 0 0 0 0 0 0 0 0
0 0 0 0 0 0 0 0 0 0 0 0 0 0 0 0 0 0 0 0 0 0 0 0 0 0 0 0 0 0 0 0 0 0 0 0 0 0 0 0 0 0 0
0 0 0 0 0 0 0 0 0 0 0 0 0 0 0 0 0 0 0 0 0 0 0 0 0 0 0 0 0 0 0 0 0 0 0 0 0 0 0 0 0 0 0
0 0 0 0 0 0 0 0 -0 -0 0 0 0 0 0 0 0 0 0 0 0 0 0 0 0 0 0 0 0 0 0 0 0 0 0 0 0 0 0 0 0 0 0
0 0 0 0 0 0 0 0 0 0 0 0 0 0 0 0 0 0 0 0 0 0 0 0 0 0 0 0 0 0 0 0 0 0 0 0 0 0 0 0 0 0 0
0 0 0 0 0 0 0 0 0 0 0 0 0 0 0 0 0 0 0 0 0 0 0 0 0 0 0 0 0 0 0 0 0 0 0 0 0 0 0 0 0 0 0
0 0 0 0 0 0 0 0 0 0 0 0 0 0 0 0 0 0 0 0 0 0 0 0 0 0 0 0 0 0 0 0 0 0 0 0 0 0 0 0 0 0 0
0 0 0 0 0 0 0 0 0 0 0 0 0 0 0 0 0 0 0 0 0 0 0 0 0 0 0 0 0 0 0 0 0 0 0 0 0 0 0 0 0 0 0
0 0 0 0 0 0 0 0 0 0 0 0 0 0 0 0 0 0 0 0 0 0 0 0 0 0 0 0 0 0 0 0 0 0 0 0 0 0 0 0 0 0 0
0 0 0 0 0 0 0 0 0 0 0 0 0 0 0 0 0 0 0 0 0 0 0 0 0 0 0 0 0 0 0 0 0 0 0 0 0 0 0 0 0 0 0
0 0 0 0 0 0 0 0 0 0 0 0 0 0 0 0 0 0 0 0 0 0 0 0 0 0 0 0 0 0 0 0 0 0 0 0 0 0 0 0 0 0 0
0 0 0 0 0 0 0 0 0 0 0 0 0 0 0 0 0 0 0 0 0 0 0 0 0 0 0 0 0 0 0 0 0 0 0 0 0 0 0 0 0 0 0
Wind_Speed_500mb
26 29 32 35 37 39 42 44 45 46 49 48 49 48 47 47 49 49 50 49 48 45 41 39 30 22 24 26 32 28 16 24 53 55 50 44 47 45 41 42 47 54 50
23 26 29 30 33 37 41 44 45 46 47 49 48 48 49 49 48 47 48 48 49 49 49 47 44 38 27 24 25 27 18 13 62 66 56 54 48 41 39 40 42 42 42
20 22 26 30 32 36 38 42 44 46 49 51 52 54 57 55 51 46 44 45 47 47 46 48 47 42 38 32 24 23 10 28 57 58 59 54 49 40 39 38 37 38 35
15 18 22 24 30 33 37 41 43 47 46 46 48 51 52 55 59 53 47 43 41 42 43 40 46 45 41 35 29 16 3 33 38 39 50 51 49 41 33 36 37 33 36
10 13 18 23 28 32 36 40 43 43 45 45 44 45 49 53 52 52 47 46 43 43 43 43 42 40 34 34 31 22 9 15 23 42 49 49 47 46 41 36 36 31 30
8 12 17 22 26 32 35 38 39 40 40 42 43 45 52 51 53 51 46 47 46 45 48 49 47 43 37 31 27 21 14 11 8 24 34 44 46 41 33 30 27 30 25
11 13 17 20 27 31 33 34 33 37 39 42 43 46 47 51 47 43 45 45 44 43 46 49 50 50 41 36 28 22 15 10 6 2 16 29 35 31 27 27 25 25 19
15 15 16 21 25 30 31 29 31 35 40 44 46 48 49 46 46 42 42 43 41 40 39 43 44 48 41 32 32 28 23 16 15 11 8 12 20 15 18 20 23 17 12
19 17 17 21 22 28 28 28 31 37 42 45 47 51 53 53 44 44 43 43 44 40 35 34 39 44 43 32 28 27 21 18 17 14 9 8 12 16 12 12 16 15 11
22 19 17 19 20 26 27 30 33 38 41 43 45 49 53 48 45 43 42 42 42 43 41 40 43 46 43 34 31 27 24 21 16 12 9 8 9 10 9 10 13 12 9
25 21 19 20 20 25 27 31 31 35 40 41 42 45 49 49 44 42 39 43 45 43 44 45 45 44 41 35 32 32 31 23 17 14 14 13 11 9 10 11 13 14 12
30 23 22 22 22 23 24 27 27 33 37 39 39 41 46 44 40 39 37 38 41 42 43 43 40 38 36 33 31 31 29 28 22 16 16 18 19 20 19 17 14 13 8
35 28 24 25 25 23 21 24 24 30 33 35 35 37 41 40 34 35 36 36 38 39 39 36 33 32 31 29 29 27 24 27 30 25 23 23 23 24 23 21 19 18 15
40 33 31 27 25 23 21 21 22 25 28 31 31 34 37 37 34 35 36 36 36 36 36 32 30 29 29 28 26 25 23 23 25 28 29 27 25 23 21 18 17 15 13
44 38 37 32 29 24 22 19 20 22 25 28 29 30 33 35 31 30 29 30 32 34 34 29 25 25 25 25 25 24 22 18 15 16 17 17 17 16 14 13 12 11 10
51 44 41 36 32 27 24 19 20 19 21 23 26 27 28 30 24 23 25 26 28 29 28 30 29 28 27 27 25 24 22 19 13 9 8 9 10 9 9 10 11 11 11
50 47 45 40 36 30 26 20 17 17 17 18 20 23 25 27 24 19 19 21 22 20 23 27 26 25 25 25 24 23 22 20 16 10 3 2 3 3 4 5 6 7 8
54 47 45 42 38 34 28 23 19 14 12 14 16 18 21 23 25 24 25 26 18 18 22 24 23 22 22 23 22 22 20 19 17 13 7 3 3 2 1 3 5 7 8
62 57 51 46 42 36 31 26 20 15 10 9 11 13 16 18 20 22 22 20 19 19 21 22 23 22 21 21 20 21 21 20 19 16 12 7 4 6 7 7 7 8 10
66 59 55 50 46 42 36 29 22 16 11 8 8 10 12 14 17 16 16 19 20 18 18 18 20 21 21 20 19 20 20 20 19 18 16 13 10 7 9 11 12 12 12
71 65 58 53 49 44 38 31 25 19 13 8 6 7 9 10 14 14 15 16 16 16 15 16 17 18 19 19 18 18 18 18 18 19 18 17 14 12 10 10 12 14 15
76 70 65 59 53 49 43 36 30 23 17 11 6 5 6 8 11 12 12 14 14 14 15 14 14 15 17 18 18 17 17 17 17 17 18 17 16 15 13 13 13 13 14
81 75 69 64 58 52 48 42 35 27 21 15 10 7 4 4 7 9 9 10 12 12 12 12 12 12 14 17 18 18 17 17 17 16 17 17 16 15 14 12 12 12 12
83 78 73 68 63 58 51 45 39 31 26 21 16 12 8 5 3 3 4 5 7 9 9 9 10 10 10 12 14 16 16 16 16 15 15 16 16 15 15 14 13 12 12
91 87 81 76 69 62 56 50 44 37 32 27 22 19 14 9 6 3 1 3 3 4 5 5 5 5 5 6 9 11 12 14 15 15 15 16 16 15 14 13 13 13 12
97 92 87 81 75 69 61 55 50 44 39 34 29 25 20 14 10 7 4 3 5 6 5 4 4 3 3 4 5 6 8 9 11 13 14 13 12 13 13 13 12 13 13
Wind_Direction_500mb
51 49 45 42 39 38 36 36 34 32 31 29 28 26 23 20 18 15 13 9 6 5 4 8 6 359 359 354 352 6 333 216 168 142 140 138 132 128 121 117 114 111 108
52 50 46 44 40 39 38 38 36 34 33 31 29 27 26 25 23 20 16 11 8 5 5 3 4 7 8 13 354 2 15 220 164 145 140 139 134 132 126 118 112 108 106
55 47 46 43 41 43 42 40 36 33 30 26 22 20 23 26 25 22 18 13 8 8 7 6 8 8 14 19 13 358 35 170 161 146 140 142 139 139 136 127 120 128 132
55 50 51 51 50 45 41 39 36 32 30 29 26 21 21 20 17 17 17 18 13 9 11 14 10 12 14 18 25 15 103 158 164 160 153 151 148 144 142 138 138 141 140
74 69 61 59 54 47 40 41 38 36 35 34 31 28 26 25 19 17 22 22 21 18 16 18 17 17 19 20 26 21 4 235 191 167 167 167 160 153 151 152 146 142 149
111 85 75 65 56 51 46 44 41 40 39 38 36 34 32 30 19 22 23 26 28 24 23 23 18 17 17 26 24 31 15 355 239 203 173 171 165 168 165 167 170 156 149
139 106 88 71 61 58 54 50 47 46 44 43 39 37 31 32 20 21 25 29 31 30 30 26 25 12 20 17 22 32 33 35 14 268 191 183 177 181 184 178 178 174 171
150 124 97 76 69 68 61 55 52 50 48 44 40 38 31 26 23 22 26 32 36 37 37 31 27 13 14 25 27 19 28 61 77 81 136 163 175 172 177 180 186 180 174
157 133 104 86 82 77 71 62 55 53 49 44 42 38 34 29 28 24 29 33 36 37 36 26 13 15 14 23 27 32 46 45 46 50 72 121 149 152 162 174 185 184 174
162 139 113 99 97 87 76 65 57 53 49 45 41 38 36 31 29 28 28 35 41 41 39 33 25 19 20 30 31 36 36 46 64 67 77 107 133 154 170 175 171 183 169
168 146 126 120 108 94 80 68 59 56 51 46 39 38 36 33 30 28 28 32 38 39 38 34 29 27 31 31 32 40 41 42 54 69 89 105 115 138 160 164 176 189 183
170 155 141 135 118 102 88 75 65 60 54 47 41 39 38 36 33 31 26 27 33 36 36 33 31 29 30 34 36 41 43 45 50 64 82 94 98 103 111 119 131 148 163
172 157 155 145 128 115 101 84 74 65 58 49 42 40 41 38 38 37 33 32 36 36 34 33 31 29 31 33 38 39 41 51 56 65 80 91 94 98 103 105 104 107 110
173 165 162 152 140 126 111 95 84 73 64 54 46 43 45 42 41 39 34 35 36 35 37 36 34 32 33 35 35 36 42 54 62 73 84 91 94 94 95 94 94 90 88
176 171 168 159 152 142 126 116 101 83 70 59 51 46 47 45 39 42 36 37 35 35 36 37 38 40 39 40 39 39 40 45 57 72 78 82 85 87 86 85 82 82 72
179 174 171 165 160 155 142 138 114 98 82 68 56 50 52 51 43 35 31 32 31 35 35 38 38 38 38 38 39 41 40 40 44 52 70 77 79 79 76 74 69 64 59
184 176 174 171 167 164 157 152 131 114 95 76 59 52 52 52 48 39 32 33 27 30 33 43 40 36 35 37 37 36 37 38 35 35 50 69 79 86 70 59 54 51 47
184 181 178 175 172 170 170 164 149 139 116 91 70 55 48 49 45 38 29 31 23 31 39 44 45 41 37 35 33 34 35 34 33 33 25 335 290 270 297 341 354 2 6
185 182 181 180 177 177 177 173 165 156 137 105 77 62 48 46 47 42 31 27 29 37 43 45 47 44 39 35 31 29 28 28 28 25 18 3 307 280 280 283 295 314 329
188 187 185 183 182 183 183 180 174 165 155 134 97 67 51 45 46 43 34 27 29 32 42 46 47 46 42 35 30 27 25 23 22 21 18 10 353 311 277 275 280 288 299
189 188 188 186 187 187 187 183 177 173 168 156 121 68 41 46 48 43 37 31 27 29 37 46 45 43 41 37 31 27 24 22 20 16 12 10 5 353 330 302 290 290 294
193 192 189 190 190 189 189 185 181 179 177 170 161 111 56 49 44 41 29 27 25 29 29 37 44 45 45 42 35 28 26 25 22 18 14 10 6 360 351 337 322 312 309
196 195 193 193 194 192 190 189 183 181 181 176 175 164 120 74 44 37 25 22 16 23 27 33 40 47 51 51 47 38 30 26 23 20 16 12 8 4 359 352 342 332 326
198 198 197 197 197 195 193 192 185 184 183 182 184 183 175 167 116 52 13 12 5 6 18 28 32 37 44 51 51 44 35 26 19 16 16 14 11 9 6 1 356 349 342
200 200 200 201 200 198 194 195 190 190 189 187 192 192 188 188 183 171 244 295 321 336 345 3 19 30 32 31 43 45 36 25 14 8 9 12 11 11 8 1 355 350 346
203 203 203 203 203 200 198 199 195 195 195 193 196 199 197 197 199 207 227 266 279 289 286 286 306 317 330 333 348 11 16 13 6 355 351 358 7 6 4 360 355 349 345
Wind_Speed_850mb
26 29 32 35 37 39 42 44 45 46 49 48 49 48 47 47 49 49 50 49 48 45 41 39 30 22 24 26 32 28 16 24 53 55 50 44 47 45 41 42 47 54 50
23 26 29 30 33 37 41 44 45 46 47 49 48 48 49 49 48 47 48 48 49 49 49 47 44 38 27 24 25 27 18 13 62 66 56 54 48 41 39 40 42 42 42
20 22 26 30 32 36 38 42 44 46 49 51 52 54 57 55 51 46 44 45 47 47 46 48 47 42 38 32 24 23 10 28 57 58 59 54 49 40 39 38 37 38 35
15 18 22 24 30 33 37 41 43 47 46 46 48 51 52 55 59 53 47 43 41 42 43 40 46 45 41 35 29 16 3 33 38 39 50 51 49 41 33 36 37 33 36
10 13 18 23 28 32 36 40 43 43 45 45 44 45 49 53 52 52 47 46 43 43 43 43 42 40 34 34 31 22 9 15 23 42 49 49 47 46 41 36 36 31 30
8 12 17 22 26 32 35 38 39 40 40 42 43 45 52 51 53 51 46 47 46 45 48 49 47 43 37 31 27 21 14 11 8 24 34 44 46 41 33 30 27 30 25
11 13 17 20 27 31 33 34 33 37 39 42 43 46 47 51 47 43 45 45 44 43 46 49 50 50 41 36 28 22 15 10 6 2 16 29 35 31 27 27 25 25 19
15 15 16 21 25 30 31 29 31 35 40 44 46 48 49 46 46 42 42 43 41 40 39 43 44 48 41 32 32 28 23 16 15 11 8 12 20 15 18 20 23 17 12
19 17 17 21 22 28 28 28 31 37 42 45 47 51 53 53 44 44 43 43 44 40 35 34 39 44 43 32 28 27 21 18 17 14 9 8 12 16 12 12 16 15 11
22 19 17 19 20 26 27 30 33 38 41 43 45 49 53 48 45 43 42 42 42 43 41 40 43 46 43 34 31 27 24 21 16 12 9 8 9 10 9 10 13 12 9
25 21 19 20 20 25 27 31 31 35 40 41 42 45 49 49 44 42 39 43 45 43 44 45 45 44 41 35 32 32 31 23 17 14 14 13 11 9 10 11 13 14 12
30 23 22 22 22 23 24 27 27 33 37 39 39 41 46 44 40 39 37 38 41 42 43 43 40 38 36 33 31 31 29 28 22 16 16 18 19 20 19 17 14 13 8
35 28 24 25 25 23 21 24 24 30 33 35 35 37 41 40 34 35 36 36 38 39 39 36 33 32 31 29 29 27 24 27 30 25 23 23 23 24 23 21 19 18 15
40 33 31 27 25 23 21 21 22 25 28 31 31 34 37 37 34 35 36 36 36 36 36 32 30 29 29 28 26 25 23 23 25 28 29 27 25 23 21 18 17 15 13
44 38 37 32 29 24 22 19 20 22 25 28 29 30 33 35 31 30 29 30 32 34 34 29 25 25 25 25 25 24 22 18 15 16 17 17 17 16 14 13 12 11 10
51 44 41 36 32 27 24 19 20 19 21 23 26 27 28 30 24 23 25 26 28 29 28 30 29 28 27 27 25 24 22 19 13 9 8 9 10 9 9 10 11 11 11
50 47 45 40 36 30 26 20 17 17 17 18 20 23 25 27 24 19 19 21 22 20 23 27 26 25 25 25 24 23 22 20 16 10 3 2 3 3 4 5 6 7 8
54 47 45 42 38 34 28 23 19 14 12 14 16 18 21 23 25 24 25 26 18 18 22 24 23 22 22 23 22 22 20 19 17 13 7 3 3 2 1 3 5 7 8
62 57 51 46 42 36 31 26 20 15 10 9 11 13 16 18 20 22 22 20 19 19 21 22 23 22 21 21 20 21 21 20 19 16 12 7 4 6 7 7 7 8 10
66 59 55 50 46 42 36 29 22 16 11 8 8 10 12 14 17 16 16 19 20 18 18 18 20 21 21 20 19 20 20 20 19 18 16 13 10 7 9 11 12 12 12
71 65 58 53 49 44 38 31 25 19 13 8 6 7 9 10 14 14 15 16 16 16 15 16 17 18 19 19 18 18 18 18 18 19 18 17 14 12 10 10 12 14 15
76 70 65 59 53 49 43 36 30 23 17 11 6 5 6 8 11 12 12 14 14 14 15 14 14 15 17 18 18 17 17 17 17 17 18 17 16 15 13 13 13 13 14
81 75 69 64 58 52 48 42 35 27 21 15 10 7 4 4 7 9 9 10 12 12 12 12 12 12 14 17 18 18 17 17 17 16 17 17 16 15 14 12 12 12 12
83 78 73 68 63 58 51 45 39 31 26 21 16 12 8 5 3 3 4 5 7 9 9 9 10 10 10 12 14 16 16 16 16 15 15 16 16 15 15 14 13 12 12
91 87 81 76 69 62 56 50 44 37 32 27 22 19 14 9 6 3 1 3 3 4 5 5 5 5 5 6 9 11 12 14 15 15 15 16 16 15 14 13 13 13 12
97 92 87 81 75 69 61 55 50 44 39 34 29 25 20 14 10 7 4 3 5 6 5 4 4 3 3 4 5 6 8 9 11 13 14 13 12 13 13 13 12 13 13
Wind_Direction_850mb
51 49 45 42 39 38 36 36 34 32 31 29 28 26 23 20 18 15 13 9 6 5 4 8 6 359 359 354 352 6 333 216 168 142 140 138 132 128 121 117 114 111 108
52 50 46 44 40 39 38 38 36 34 33 31 29 27 26 25 23 20 16 11 8 5 5 3 4 7 8 13 354 2 15 220 164 145 140 139 134 132 126 118 112 108 106
55 47 46 43 41 43 42 40 36 33 30 26 22 20 23 26 25 22 18 13 8 8 7 6 8 8 14 19 13 358 35 170 161 146 140 142 139 139 136 127 120 128 132
55 50 51 51 50 45 41 39 36 32 30 29 26 21 21 20 17 17 17 18 13 9 11 14 10 12 14 18 25 15 103 158 164 160 153 151 148 144 142 138 138 141 140
74 69 61 59 54 47 40 41 38 36 35 34 31 28 26 25 19 17 22 22 21 18 16 18 17 17 19 20 26 21 4 235 191 167 167 167 160 153 151 152 146 142 149
111 85 75 65 56 51 46 44 41 40 39 38 36 34 32 30 19 22 23 26 28 24 23 23 18 17 17 26 24 31 15 355 239 203 173 171 165 168 165 167 170 156 149
139 106 88 71 61 58 54 50 47 46 44 43 39 37 31 32 20 21 25 29 31 30 30 26 25 12 20 17 22 32 33 35 14 268 191 183 177 181 184 178 178 174 171
150 124 97 76 69 68 61 55 52 50 48 44 40 38 31 26 23 22 26 32 36 37 37 31 27 13 14 25 27 19 28 61 77 81 136 163 175 172 177 180 186 180 174
157 133 104 86 82 77 71 62 55 53 49 44 42 38 34 29 28 24 29 33 36 37 36 26 13 15 14 23 27 32 46 45 46 50 72 121 149 152 162 174 185 184 174
162 139 113 99 97 87 76 65 57 53 49 45 41 38 36 31 29 28 28 35 41 41 39 33 25 19 20 30 31 36 36 46 64 67 77 107 133 154 170 175 171 183 169
168 146 126 120 108 94 80 68 59 56 51 46 39 38 36 33 30 28 28 32 38 39 38 34 29 27 31 31 32 40 41 42 54 69 89 105 115 138 160 164 176 189 183
170 155 141 135 118 102 88 75 65 60 54 47 41 39 38 36 33 31 26 27 33 36 36 33 31 29 30 34 36 41 43 45 50 64 82 94 98 103 111 119 131 148 163
172 157 155 145 128 115 101 84 74 65 58 49 42 40 41 38 38 37 33 32 36 36 34 33 31 29 31 33 38 39 41 51 56 65 80 91 94 98 103 105 104 107 110
173 165 162 152 140 126 111 95 84 73 64 54 46 43 45 42 41 39 34 35 36 35 37 36 34 32 33 35 35 36 42 54 62 73 84 91 94 94 95 94 94 90 88
176 171 168 159 152 142 126 116 101 83 70 59 51 46 47 45 39 42 36 37 35 35 36 37 38 40 39 40 39 39 40 45 57 72 78 82 85 87 86 85 82 82 72
179 174 171 165 160 155 142 138 114 98 82 68 56 50 52 51 43 35 31 32 31 35 35 38 38 38 38 38 39 41 40 40 44 52 70 77 79 79 76 74 69 64 59
184 176 174 171 167 164 157 152 131 114 95 76 59 52 52 52 48 39 32 33 27 30 33 43 40 36 35 37 37 36 37 38 35 35 50 69 79 86 70 59 54 51 47
184 181 178 175 172 170 170 164 149 139 116 91 70 55 48 49 45 38 29 31 23 31 39 44 45 41 37 35 33 34 35 34 33 33 25 335 290 270 297 341 354 2 6
185 182 181 180 177 177 177 173 165 156 137 105 77 62 48 46 47 42 31 27 29 37 43 45 47 44 39 35 31 29 28 28 28 25 18 3 307 280 280 283 295 314 329
188 187 185 183 182 183 183 180 174 165 155 134 97 67 51 45 46 43 34 27 29 32 42 46 47 46 42 35 30 27 25 23 22 21 18 10 353 311 277 275 280 288 299
189 188 188 186 187 187 187 183 177 173 168 156 121 68 41 46 48 43 37 31 27 29 37 46 45 43 41 37 31 27 24 22 20 16 12 10 5 353 330 302 290 290 294
193 192 189 190 190 189 189 185 181 179 177 170 161 111 56 49 44 41 29 27 25 29 29 37 44 45 45 42 35 28 26 25 22 18 14 10 6 360 351 337 322 312 309
196 195 193 193 194 192 190 189 183 181 181 176 175 164 120 74 44 37 25 22 16 23 27 33 40 47 51 51 47 38 30 26 23 20 16 12 8 4 359 352 342 332 326
198 198 197 197 197 195 193 192 185 184 183 182 184 183 175 167 116 52 13 12 5 6 18 28 32 37 44 51 51 44 35 26 19 16 16 14 11 9 6 1 356 349 342
200 200 200 201 200 198 194 195 190 190 189 187 192 192 188 188 183 171 244 295 321 336 345 3 19 30 32 31 43 45 36 25 14 8 9 12 11 11 8 1 355 350 346
203 203 203 203 203 200 198 199 195 195 195 193 196 199 197 197 199 207 227 266 279 289 286 286 306 317 330 333 348 11 16 13 6 355 351 358 7 6 4 360 355 349 345